GEFSNGP_prec_meanprecacc_054.txt.gz
Total_Precipitation_Accumulation
0.00 0.01 0.02 0.03 0.04 0.03 0.03 0.04 0.11 0.08 0.09 0.08 0.03 0.02 0.02 0.03 0.04 0.04 0.03 0.06 0.05 0.06 0.08 0.11 0.14 0.18 0.22 0.22 0.23 0.28 0.38 0.55 0.70 0.80 0.65 0.44 0.32 0.27 0.23 0.27 0.35 0.44 0.53 0.60
0.00 0.01 0.02 0.03 0.05 0.03 0.02 0.02 0.02 0.03 0.05 0.03 0.02 0.03 0.03 0.03 0.04 0.03 0.03 0.04 0.05 0.06 0.10 0.12 0.13 0.14 0.14 0.16 0.18 0.23 0.30 0.36 0.47 0.51 0.42 0.28 0.15 0.10 0.13 0.19 0.26 0.31 0.36 0.41
0.00 0.01 0.01 0.05 0.04 0.02 0.01 0.02 0.04 0.05 0.06 0.04 0.04 0.05 0.05 0.05 0.04 0.03 0.02 0.02 0.01 0.02 0.03 0.04 0.06 0.08 0.08 0.10 0.16 0.26 0.33 0.33 0.38 0.41 0.35 0.22 0.10 0.07 0.10 0.14 0.17 0.20 0.21 0.23
0.00 0.01 0.05 0.05 0.02 0.02 0.02 0.03 0.05 0.06 0.06 0.06 0.07 0.06 0.06 0.06 0.04 0.03 0.02 0.01 0.01 0.01 0.02 0.02 0.03 0.03 0.04 0.07 0.15 0.24 0.28 0.28 0.37 0.42 0.38 0.28 0.20 0.16 0.15 0.16 0.17 0.18 0.18 0.17
0.00 0.01 0.04 0.03 0.03 0.05 0.05 0.06 0.06 0.07 0.08 0.08 0.07 0.05 0.04 0.03 0.02 0.01 0.01 0.01 0.02 0.02 0.03 0.03 0.03 0.04 0.04 0.07 0.14 0.20 0.26 0.30 0.34 0.41 0.41 0.34 0.31 0.30 0.28 0.25 0.23 0.21 0.20 0.19
0.01 0.02 0.06 0.05 0.05 0.06 0.07 0.16 0.13 0.09 0.07 0.04 0.03 0.05 0.02 0.01 0.01 0.01 0.01 0.01 0.02 0.02 0.03 0.03 0.04 0.07 0.10 0.12 0.16 0.23 0.27 0.31 0.36 0.43 0.47 0.42 0.40 0.39 0.36 0.36 0.31 0.28 0.25 0.25
0.03 0.07 0.08 0.03 0.04 0.04 0.12 0.19 0.07 0.03 0.02 0.02 0.05 0.08 0.03 0.01 0.01 0.01 0.01 0.02 0.03 0.04 0.04 0.05 0.08 0.13 0.17 0.17 0.19 0.22 0.26 0.29 0.37 0.50 0.54 0.53 0.54 0.54 0.48 0.43 0.41 0.41 0.38 0.35
0.05 0.10 0.13 0.04 0.03 0.05 0.07 0.04 0.03 0.03 0.03 0.04 0.03 0.02 0.02 0.01 0.01 0.01 0.02 0.03 0.04 0.05 0.08 0.10 0.14 0.20 0.24 0.25 0.24 0.25 0.28 0.33 0.44 0.51 0.46 0.44 0.57 0.63 0.60 0.56 0.53 0.52 0.50 0.46
0.07 0.09 0.04 0.02 0.02 0.03 0.03 0.05 0.04 0.04 0.02 0.03 0.03 0.03 0.03 0.03 0.02 0.03 0.03 0.04 0.06 0.09 0.13 0.17 0.23 0.32 0.39 0.39 0.38 0.35 0.36 0.40 0.46 0.48 0.53 0.59 0.61 0.62 0.64 0.64 0.61 0.56 0.55 0.55
0.07 0.04 0.02 0.02 0.02 0.02 0.02 0.03 0.02 0.02 0.02 0.03 0.05 0.05 0.05 0.05 0.05 0.04 0.05 0.06 0.08 0.11 0.17 0.25 0.35 0.45 0.52 0.52 0.49 0.46 0.42 0.41 0.43 0.48 0.52 0.62 0.72 0.72 0.68 0.67 0.67 0.65 0.61 0.57
0.06 0.04 0.03 0.03 0.03 0.02 0.01 0.01 0.01 0.02 0.02 0.04 0.06 0.07 0.06 0.06 0.06 0.06 0.05 0.05 0.07 0.13 0.23 0.32 0.45 0.56 0.57 0.56 0.58 0.57 0.52 0.47 0.45 0.48 0.53 0.63 0.71 0.77 0.76 0.72 0.62 0.61 0.60 0.57
0.07 0.07 0.08 0.07 0.04 0.02 0.02 0.02 0.03 0.03 0.03 0.03 0.04 0.06 0.06 0.06 0.07 0.07 0.07 0.07 0.12 0.19 0.26 0.31 0.43 0.58 0.62 0.64 0.67 0.69 0.67 0.62 0.59 0.57 0.60 0.63 0.70 0.69 0.61 0.58 0.49 0.45 0.44 0.43
0.06 0.05 0.06 0.06 0.05 0.04 0.05 0.04 0.03 0.03 0.03 0.04 0.04 0.05 0.06 0.06 0.06 0.06 0.07 0.10 0.16 0.20 0.25 0.29 0.38 0.48 0.58 0.69 0.78 0.82 0.79 0.77 0.74 0.66 0.66 0.69 0.73 0.75 0.71 0.60 0.53 0.45 0.36 0.31
0.03 0.04 0.05 0.05 0.04 0.03 0.03 0.03 0.02 0.02 0.03 0.03 0.03 0.04 0.04 0.05 0.06 0.08 0.11 0.13 0.15 0.18 0.24 0.32 0.41 0.48 0.55 0.70 0.81 0.83 0.82 0.80 0.76 0.72 0.67 0.69 0.73 0.72 0.75 0.76 0.68 0.57 0.43 0.32
0.02 0.04 0.05 0.04 0.02 0.02 0.03 0.03 0.02 0.03 0.03 0.04 0.04 0.04 0.05 0.07 0.09 0.11 0.13 0.16 0.20 0.22 0.27 0.37 0.47 0.53 0.65 0.78 0.83 0.82 0.79 0.78 0.74 0.72 0.69 0.66 0.71 0.71 0.69 0.74 0.72 0.67 0.54 0.40
0.01 0.01 0.02 0.02 0.02 0.03 0.04 0.04 0.04 0.04 0.05 0.05 0.05 0.06 0.06 0.08 0.09 0.12 0.15 0.20 0.30 0.33 0.39 0.50 0.56 0.60 0.73 0.84 0.89 0.86 0.80 0.73 0.69 0.67 0.66 0.65 0.67 0.70 0.66 0.69 0.68 0.66 0.54 0.40
0.03 0.02 0.01 0.02 0.03 0.05 0.06 0.07 0.06 0.06 0.06 0.06 0.06 0.07 0.08 0.10 0.15 0.19 0.22 0.25 0.32 0.38 0.47 0.60 0.63 0.63 0.76 0.88 0.95 0.93 0.84 0.72 0.61 0.58 0.57 0.62 0.66 0.67 0.65 0.63 0.61 0.59 0.47 0.32
0.03 0.04 0.04 0.05 0.06 0.08 0.09 0.10 0.10 0.10 0.11 0.11 0.12 0.13 0.16 0.23 0.33 0.39 0.40 0.41 0.44 0.42 0.44 0.56 0.61 0.67 0.75 0.84 0.90 0.93 0.90 0.80 0.65 0.54 0.52 0.59 0.64 0.64 0.62 0.58 0.55 0.53 0.42 0.27
0.03 0.04 0.06 0.11 0.16 0.17 0.17 0.17 0.18 0.18 0.19 0.19 0.20 0.23 0.28 0.36 0.47 0.56 0.57 0.61 0.65 0.63 0.56 0.54 0.58 0.62 0.69 0.74 0.79 0.87 0.83 0.76 0.64 0.47 0.46 0.52 0.56 0.60 0.59 0.52 0.50 0.46 0.35 0.23
0.03 0.03 0.05 0.15 0.27 0.32 0.32 0.31 0.31 0.30 0.28 0.27 0.29 0.34 0.40 0.45 0.56 0.67 0.69 0.67 0.68 0.73 0.68 0.59 0.56 0.58 0.63 0.67 0.70 0.74 0.70 0.68 0.63 0.45 0.40 0.49 0.52 0.57 0.55 0.45 0.41 0.35 0.24 0.16
0.01 0.02 0.03 0.06 0.13 0.21 0.26 0.27 0.28 0.31 0.33 0.37 0.47 0.57 0.65 0.63 0.66 0.78 0.87 0.77 0.63 0.67 0.64 0.57 0.50 0.51 0.54 0.65 0.68 0.69 0.64 0.61 0.62 0.50 0.40 0.44 0.50 0.53 0.49 0.40 0.33 0.24 0.16 0.11
0.02 0.03 0.04 0.06 0.07 0.09 0.10 0.13 0.19 0.29 0.37 0.42 0.49 0.62 0.76 0.83 0.87 0.87 0.79 0.77 0.70 0.68 0.60 0.53 0.47 0.44 0.45 0.52 0.64 0.66 0.63 0.61 0.61 0.56 0.45 0.43 0.47 0.47 0.42 0.33 0.23 0.15 0.10 0.08
0.01 0.02 0.02 0.03 0.04 0.06 0.08 0.10 0.16 0.26 0.36 0.43 0.53 0.71 0.87 0.92 1.01 1.14 0.95 0.69 0.63 0.63 0.58 0.49 0.44 0.41 0.38 0.38 0.51 0.57 0.56 0.58 0.59 0.56 0.48 0.41 0.38 0.37 0.33 0.24 0.16 0.09 0.07 0.06
0.02 0.02 0.02 0.02 0.04 0.06 0.09 0.13 0.17 0.25 0.34 0.40 0.48 0.66 0.87 1.01 0.98 0.88 0.81 0.68 0.58 0.52 0.51 0.45 0.36 0.34 0.32 0.30 0.37 0.44 0.47 0.51 0.48 0.44 0.39 0.31 0.29 0.28 0.21 0.15 0.10 0.06 0.05 0.04
0.02 0.03 0.03 0.05 0.09 0.15 0.23 0.29 0.33 0.37 0.45 0.48 0.48 0.55 0.66 0.87 1.01 0.82 0.60 0.53 0.50 0.44 0.43 0.41 0.34 0.31 0.28 0.25 0.26 0.31 0.36 0.39 0.37 0.35 0.30 0.26 0.24 0.19 0.14 0.10 0.07 0.04 0.04 0.03
0.04 0.04 0.05 0.08 0.14 0.25 0.39 0.50 0.59 0.63 0.72 0.77 0.68 0.61 0.61 0.65 0.71 0.67 0.53 0.45 0.43 0.41 0.36 0.35 0.33 0.29 0.26 0.23 0.20 0.24 0.31 0.35 0.35 0.32 0.26 0.23 0.21 0.17 0.13 0.10 0.05 0.04 0.03 0.02
0.07 0.06 0.08 0.11 0.18 0.30 0.46 0.61 0.74 0.82 0.89 0.96 0.89 0.73 0.64 0.59 0.60 0.59 0.52 0.46 0.43 0.42 0.39 0.35 0.33 0.30 0.28 0.25 0.22 0.23 0.28 0.31 0.32 0.30 0.28 0.27 0.24 0.19 0.15 0.08 0.05 0.03 0.03 0.02

GEFSNGP_prec_meanprecacc_060.txt.gz
Total_Precipitation_Accumulation
0.00 0.01 0.02 0.03 0.04 0.03 0.03 0.04 0.11 0.08 0.09 0.08 0.03 0.02 0.02 0.03 0.04 0.04 0.03 0.06 0.05 0.06 0.08 0.11 0.14 0.18 0.22 0.22 0.24 0.28 0.38 0.55 0.71 0.81 0.66 0.45 0.33 0.28 0.25 0.29 0.37 0.45 0.55 0.62
0.00 0.01 0.02 0.03 0.05 0.03 0.02 0.02 0.02 0.03 0.05 0.03 0.02 0.03 0.03 0.03 0.04 0.03 0.03 0.04 0.05 0.06 0.10 0.12 0.13 0.14 0.14 0.16 0.18 0.24 0.31 0.36 0.47 0.52 0.43 0.29 0.17 0.12 0.16 0.23 0.29 0.36 0.41 0.46
0.00 0.01 0.01 0.05 0.04 0.02 0.01 0.02 0.04 0.05 0.06 0.04 0.04 0.05 0.05 0.05 0.04 0.03 0.02 0.02 0.01 0.02 0.03 0.04 0.07 0.08 0.08 0.10 0.16 0.27 0.34 0.33 0.39 0.43 0.37 0.25 0.13 0.11 0.14 0.19 0.23 0.26 0.28 0.30
0.00 0.01 0.05 0.05 0.02 0.02 0.02 0.03 0.05 0.06 0.06 0.06 0.07 0.06 0.06 0.06 0.04 0.03 0.02 0.01 0.01 0.01 0.02 0.02 0.03 0.03 0.04 0.08 0.16 0.24 0.29 0.30 0.39 0.45 0.42 0.32 0.25 0.22 0.22 0.24 0.25 0.26 0.26 0.25
0.00 0.01 0.04 0.03 0.03 0.05 0.05 0.06 0.06 0.07 0.08 0.08 0.07 0.05 0.04 0.03 0.02 0.01 0.01 0.01 0.02 0.02 0.03 0.03 0.03 0.04 0.04 0.08 0.15 0.22 0.28 0.33 0.38 0.46 0.47 0.41 0.37 0.36 0.35 0.34 0.32 0.30 0.28 0.27
0.01 0.02 0.06 0.05 0.05 0.06 0.07 0.16 0.13 0.09 0.07 0.04 0.03 0.05 0.02 0.01 0.01 0.01 0.01 0.01 0.02 0.02 0.03 0.03 0.05 0.07 0.11 0.13 0.17 0.25 0.30 0.36 0.41 0.51 0.56 0.50 0.48 0.47 0.45 0.46 0.41 0.37 0.33 0.33
0.03 0.07 0.08 0.03 0.04 0.04 0.12 0.19 0.07 0.03 0.02 0.02 0.05 0.08 0.03 0.01 0.01 0.01 0.01 0.02 0.03 0.04 0.04 0.06 0.09 0.13 0.18 0.18 0.21 0.25 0.30 0.35 0.44 0.57 0.62 0.61 0.64 0.65 0.59 0.53 0.52 0.51 0.46 0.43
0.05 0.10 0.13 0.04 0.03 0.05 0.07 0.04 0.03 0.03 0.03 0.04 0.03 0.02 0.02 0.01 0.01 0.01 0.02 0.03 0.04 0.05 0.08 0.10 0.14 0.21 0.26 0.27 0.27 0.28 0.32 0.38 0.50 0.57 0.53 0.52 0.67 0.72 0.69 0.66 0.64 0.62 0.59 0.55
0.07 0.09 0.04 0.02 0.02 0.03 0.03 0.05 0.04 0.04 0.02 0.03 0.03 0.03 0.03 0.03 0.02 0.03 0.03 0.04 0.06 0.09 0.13 0.17 0.24 0.33 0.41 0.41 0.40 0.38 0.40 0.45 0.52 0.54 0.59 0.67 0.70 0.71 0.73 0.73 0.69 0.64 0.62 0.61
0.07 0.04 0.02 0.02 0.02 0.02 0.02 0.03 0.02 0.02 0.02 0.03 0.05 0.05 0.05 0.05 0.05 0.04 0.05 0.06 0.08 0.11 0.18 0.26 0.35 0.46 0.54 0.54 0.52 0.50 0.47 0.46 0.48 0.54 0.59 0.70 0.81 0.80 0.76 0.75 0.75 0.73 0.69 0.64
0.06 0.04 0.03 0.03 0.03 0.02 0.01 0.01 0.01 0.02 0.02 0.04 0.06 0.07 0.06 0.06 0.06 0.06 0.05 0.05 0.07 0.14 0.23 0.32 0.46 0.57 0.59 0.59 0.61 0.62 0.57 0.51 0.50 0.54 0.60 0.71 0.78 0.84 0.81 0.79 0.68 0.68 0.68 0.66
0.07 0.07 0.08 0.07 0.04 0.02 0.02 0.02 0.03 0.03 0.03 0.03 0.04 0.06 0.06 0.06 0.07 0.07 0.07 0.07 0.13 0.20 0.26 0.31 0.44 0.59 0.64 0.67 0.71 0.74 0.72 0.67 0.64 0.64 0.67 0.69 0.75 0.74 0.65 0.60 0.50 0.47 0.46 0.47
0.06 0.05 0.06 0.06 0.05 0.04 0.05 0.04 0.03 0.03 0.03 0.04 0.04 0.05 0.06 0.06 0.06 0.06 0.07 0.10 0.16 0.21 0.25 0.30 0.38 0.49 0.60 0.73 0.82 0.86 0.83 0.81 0.79 0.72 0.71 0.74 0.78 0.81 0.78 0.65 0.55 0.46 0.37 0.32
0.03 0.04 0.05 0.05 0.04 0.03 0.03 0.03 0.02 0.02 0.03 0.03 0.03 0.04 0.04 0.05 0.06 0.08 0.11 0.13 0.15 0.19 0.24 0.33 0.42 0.49 0.57 0.73 0.84 0.86 0.85 0.84 0.81 0.77 0.73 0.74 0.78 0.78 0.82 0.83 0.75 0.62 0.45 0.33
0.02 0.04 0.05 0.04 0.02 0.02 0.03 0.03 0.02 0.03 0.03 0.04 0.04 0.04 0.05 0.07 0.09 0.11 0.13 0.16 0.20 0.23 0.28 0.38 0.48 0.55 0.67 0.80 0.86 0.85 0.83 0.81 0.78 0.77 0.75 0.71 0.75 0.75 0.74 0.79 0.78 0.72 0.58 0.42
0.01 0.01 0.02 0.02 0.02 0.03 0.04 0.04 0.04 0.04 0.05 0.05 0.05 0.06 0.06 0.08 0.09 0.12 0.15 0.20 0.30 0.33 0.39 0.50 0.57 0.62 0.75 0.86 0.92 0.89 0.83 0.76 0.72 0.70 0.71 0.70 0.71 0.74 0.70 0.73 0.72 0.71 0.60 0.45
0.03 0.02 0.01 0.02 0.03 0.05 0.06 0.07 0.06 0.06 0.06 0.06 0.06 0.07 0.08 0.10 0.15 0.19 0.22 0.25 0.32 0.38 0.47 0.61 0.64 0.64 0.77 0.90 0.98 0.96 0.87 0.75 0.63 0.60 0.61 0.66 0.70 0.70 0.68 0.66 0.65 0.64 0.53 0.37
0.03 0.04 0.04 0.05 0.06 0.08 0.09 0.10 0.10 0.10 0.11 0.11 0.12 0.13 0.16 0.23 0.33 0.39 0.40 0.41 0.44 0.42 0.44 0.56 0.62 0.68 0.76 0.85 0.93 0.96 0.93 0.83 0.68 0.56 0.55 0.61 0.67 0.68 0.65 0.61 0.59 0.58 0.47 0.31
0.03 0.04 0.06 0.11 0.16 0.17 0.17 0.17 0.18 0.18 0.19 0.19 0.20 0.23 0.28 0.36 0.47 0.56 0.57 0.61 0.65 0.63 0.56 0.54 0.59 0.63 0.70 0.76 0.82 0.89 0.86 0.78 0.67 0.50 0.48 0.54 0.59 0.64 0.62 0.55 0.53 0.51 0.41 0.28
0.03 0.03 0.05 0.15 0.27 0.32 0.32 0.31 0.31 0.30 0.28 0.27 0.29 0.34 0.40 0.45 0.56 0.67 0.69 0.67 0.68 0.73 0.68 0.60 0.57 0.59 0.64 0.68 0.71 0.76 0.73 0.71 0.65 0.47 0.43 0.51 0.55 0.60 0.57 0.47 0.44 0.39 0.29 0.22
0.01 0.02 0.03 0.06 0.13 0.21 0.26 0.27 0.28 0.31 0.33 0.37 0.47 0.57 0.65 0.63 0.66 0.78 0.87 0.77 0.63 0.67 0.65 0.58 0.51 0.52 0.55 0.66 0.70 0.71 0.67 0.64 0.64 0.52 0.42 0.46 0.52 0.56 0.51 0.42 0.35 0.28 0.20 0.16
0.02 0.03 0.04 0.06 0.07 0.09 0.10 0.13 0.19 0.29 0.37 0.42 0.49 0.62 0.76 0.83 0.87 0.87 0.79 0.77 0.70 0.69 0.60 0.53 0.47 0.46 0.46 0.53 0.65 0.67 0.65 0.62 0.63 0.57 0.47 0.45 0.49 0.48 0.44 0.35 0.25 0.18 0.13 0.11
0.01 0.02 0.03 0.03 0.04 0.06 0.08 0.10 0.16 0.26 0.36 0.43 0.53 0.71 0.87 0.92 1.01 1.14 0.96 0.69 0.63 0.64 0.58 0.49 0.46 0.42 0.39 0.39 0.52 0.58 0.57 0.60 0.61 0.58 0.50 0.42 0.39 0.37 0.34 0.25 0.17 0.11 0.10 0.10
0.02 0.02 0.02 0.02 0.04 0.06 0.10 0.13 0.18 0.25 0.34 0.40 0.48 0.66 0.87 1.01 0.98 0.88 0.81 0.68 0.58 0.52 0.51 0.46 0.37 0.35 0.34 0.31 0.38 0.45 0.48 0.52 0.49 0.45 0.40 0.32 0.30 0.28 0.22 0.17 0.12 0.08 0.07 0.07
0.03 0.03 0.03 0.05 0.10 0.16 0.23 0.29 0.33 0.37 0.45 0.48 0.49 0.55 0.66 0.87 1.01 0.82 0.60 0.53 0.50 0.44 0.43 0.42 0.36 0.32 0.29 0.26 0.27 0.31 0.37 0.39 0.37 0.36 0.31 0.27 0.24 0.20 0.15 0.12 0.08 0.06 0.05 0.05
0.04 0.05 0.06 0.09 0.15 0.26 0.39 0.51 0.60 0.63 0.72 0.77 0.68 0.62 0.61 0.65 0.71 0.67 0.53 0.45 0.43 0.41 0.36 0.35 0.34 0.30 0.26 0.24 0.21 0.25 0.32 0.36 0.35 0.32 0.26 0.24 0.21 0.17 0.14 0.11 0.06 0.05 0.04 0.04
0.07 0.07 0.09 0.12 0.20 0.31 0.47 0.62 0.75 0.83 0.89 0.96 0.90 0.73 0.64 0.59 0.60 0.59 0.52 0.46 0.43 0.42 0.39 0.36 0.34 0.31 0.28 0.26 0.23 0.24 0.28 0.32 0.32 0.30 0.28 0.27 0.25 0.20 0.15 0.09 0.06 0.04 0.03 0.03

GEFSNGP_prec_meanprecacc_066.txt.gz
Total_Precipitation_Accumulation
0.00 0.01 0.02 0.03 0.04 0.03 0.03 0.04 0.11 0.08 0.09 0.08 0.03 0.02 0.02 0.03 0.04 0.04 0.03 0.06 0.05 0.06 0.08 0.11 0.14 0.18 0.22 0.22 0.24 0.28 0.39 0.56 0.72 0.82 0.68 0.47 0.36 0.31 0.28 0.33 0.40 0.51 0.62 0.70
0.00 0.01 0.02 0.03 0.05 0.03 0.02 0.02 0.02 0.03 0.05 0.03 0.02 0.03 0.03 0.03 0.04 0.03 0.03 0.04 0.05 0.06 0.10 0.12 0.13 0.14 0.15 0.17 0.19 0.24 0.32 0.38 0.48 0.54 0.45 0.32 0.20 0.15 0.20 0.28 0.35 0.43 0.50 0.56
0.00 0.01 0.01 0.05 0.04 0.02 0.01 0.02 0.04 0.05 0.06 0.04 0.04 0.05 0.05 0.05 0.04 0.03 0.02 0.02 0.01 0.02 0.03 0.04 0.07 0.08 0.08 0.10 0.16 0.27 0.35 0.35 0.40 0.45 0.40 0.28 0.16 0.14 0.18 0.25 0.31 0.35 0.38 0.41
0.00 0.01 0.06 0.05 0.02 0.02 0.02 0.03 0.05 0.06 0.06 0.06 0.07 0.06 0.06 0.06 0.04 0.03 0.02 0.01 0.01 0.01 0.02 0.02 0.03 0.03 0.04 0.08 0.16 0.25 0.31 0.31 0.41 0.49 0.45 0.36 0.29 0.27 0.28 0.32 0.35 0.36 0.35 0.36
0.00 0.01 0.04 0.04 0.04 0.05 0.05 0.06 0.06 0.07 0.08 0.08 0.07 0.05 0.04 0.03 0.02 0.01 0.01 0.01 0.02 0.02 0.03 0.03 0.04 0.04 0.05 0.08 0.16 0.23 0.29 0.35 0.41 0.49 0.51 0.45 0.42 0.42 0.44 0.44 0.42 0.41 0.38 0.37
0.01 0.02 0.06 0.05 0.05 0.07 0.07 0.16 0.13 0.09 0.07 0.04 0.03 0.05 0.02 0.01 0.01 0.01 0.01 0.01 0.02 0.02 0.03 0.04 0.05 0.08 0.12 0.14 0.18 0.26 0.32 0.38 0.44 0.54 0.61 0.56 0.54 0.55 0.55 0.56 0.51 0.47 0.43 0.44
0.03 0.07 0.08 0.03 0.04 0.04 0.12 0.19 0.07 0.03 0.02 0.02 0.05 0.08 0.03 0.01 0.01 0.01 0.01 0.02 0.03 0.04 0.05 0.06 0.09 0.14 0.19 0.19 0.22 0.26 0.31 0.36 0.46 0.61 0.67 0.67 0.71 0.73 0.69 0.64 0.63 0.62 0.56 0.55
0.05 0.10 0.13 0.04 0.03 0.05 0.07 0.04 0.03 0.03 0.03 0.04 0.03 0.02 0.02 0.01 0.01 0.01 0.02 0.03 0.04 0.05 0.08 0.11 0.15 0.22 0.27 0.29 0.28 0.30 0.34 0.41 0.53 0.61 0.56 0.56 0.73 0.80 0.80 0.78 0.74 0.73 0.70 0.65
0.07 0.09 0.04 0.02 0.02 0.03 0.03 0.05 0.04 0.04 0.02 0.03 0.03 0.03 0.03 0.03 0.02 0.03 0.03 0.05 0.06 0.10 0.13 0.17 0.25 0.34 0.43 0.43 0.42 0.40 0.41 0.47 0.54 0.58 0.64 0.73 0.79 0.81 0.83 0.85 0.81 0.76 0.75 0.75
0.07 0.04 0.02 0.02 0.02 0.02 0.02 0.03 0.02 0.02 0.02 0.03 0.05 0.05 0.05 0.05 0.05 0.04 0.05 0.06 0.08 0.11 0.18 0.26 0.37 0.47 0.55 0.56 0.54 0.52 0.49 0.48 0.51 0.58 0.64 0.77 0.91 0.91 0.87 0.86 0.87 0.85 0.81 0.78
0.06 0.04 0.03 0.03 0.03 0.02 0.01 0.01 0.01 0.02 0.02 0.04 0.06 0.07 0.06 0.06 0.06 0.06 0.06 0.05 0.07 0.14 0.24 0.33 0.47 0.58 0.60 0.60 0.63 0.64 0.59 0.54 0.53 0.58 0.67 0.79 0.88 0.94 0.88 0.86 0.73 0.73 0.76 0.76
0.07 0.07 0.08 0.07 0.04 0.02 0.02 0.02 0.03 0.03 0.03 0.03 0.04 0.06 0.06 0.06 0.07 0.07 0.07 0.07 0.13 0.20 0.27 0.32 0.45 0.60 0.65 0.69 0.73 0.77 0.75 0.70 0.67 0.69 0.74 0.77 0.85 0.84 0.71 0.62 0.51 0.47 0.47 0.49
0.06 0.05 0.06 0.06 0.05 0.04 0.05 0.04 0.03 0.03 0.03 0.04 0.04 0.05 0.06 0.06 0.06 0.06 0.07 0.10 0.16 0.21 0.26 0.31 0.39 0.50 0.61 0.74 0.85 0.89 0.87 0.85 0.83 0.77 0.78 0.83 0.88 0.93 0.90 0.74 0.58 0.47 0.38 0.33
0.03 0.04 0.05 0.05 0.04 0.03 0.03 0.03 0.02 0.02 0.03 0.03 0.03 0.04 0.04 0.05 0.06 0.08 0.11 0.13 0.15 0.19 0.25 0.33 0.43 0.50 0.58 0.74 0.86 0.89 0.89 0.87 0.85 0.84 0.81 0.84 0.87 0.89 0.93 0.95 0.86 0.70 0.48 0.35
0.02 0.04 0.05 0.04 0.02 0.02 0.03 0.03 0.02 0.03 0.03 0.04 0.04 0.04 0.05 0.07 0.09 0.11 0.13 0.16 0.20 0.23 0.28 0.38 0.49 0.56 0.68 0.81 0.87 0.88 0.87 0.84 0.81 0.82 0.83 0.81 0.83 0.84 0.83 0.88 0.88 0.82 0.66 0.47
0.01 0.01 0.02 0.02 0.02 0.03 0.04 0.04 0.04 0.04 0.05 0.05 0.05 0.06 0.06 0.08 0.09 0.12 0.15 0.20 0.30 0.34 0.40 0.51 0.58 0.62 0.75 0.87 0.94 0.91 0.88 0.79 0.73 0.74 0.78 0.79 0.80 0.82 0.79 0.82 0.82 0.80 0.68 0.53
0.03 0.02 0.01 0.02 0.03 0.05 0.06 0.07 0.07 0.06 0.06 0.06 0.06 0.07 0.08 0.10 0.15 0.19 0.22 0.25 0.32 0.39 0.48 0.61 0.65 0.65 0.78 0.91 1.00 0.98 0.91 0.80 0.67 0.65 0.68 0.73 0.78 0.79 0.76 0.74 0.73 0.73 0.61 0.44
0.03 0.04 0.04 0.05 0.06 0.08 0.09 0.10 0.10 0.10 0.11 0.12 0.12 0.13 0.16 0.23 0.33 0.39 0.40 0.41 0.44 0.42 0.45 0.56 0.62 0.68 0.76 0.87 0.94 0.97 0.96 0.88 0.75 0.63 0.60 0.66 0.72 0.75 0.73 0.68 0.65 0.64 0.54 0.37
0.03 0.04 0.06 0.11 0.16 0.18 0.17 0.18 0.18 0.18 0.19 0.19 0.20 0.23 0.28 0.36 0.47 0.56 0.57 0.61 0.66 0.63 0.56 0.54 0.59 0.63 0.71 0.77 0.82 0.91 0.88 0.82 0.72 0.56 0.53 0.58 0.65 0.70 0.67 0.59 0.58 0.57 0.48 0.37
0.03 0.03 0.05 0.15 0.27 0.33 0.33 0.31 0.31 0.30 0.28 0.27 0.30 0.34 0.40 0.45 0.56 0.67 0.69 0.67 0.68 0.73 0.68 0.60 0.57 0.59 0.64 0.68 0.72 0.77 0.75 0.75 0.70 0.52 0.47 0.57 0.63 0.66 0.62 0.52 0.51 0.47 0.38 0.32
0.01 0.02 0.03 0.06 0.13 0.21 0.26 0.27 0.28 0.31 0.33 0.37 0.47 0.57 0.65 0.64 0.67 0.78 0.87 0.77 0.63 0.67 0.65 0.58 0.51 0.52 0.55 0.66 0.70 0.72 0.69 0.67 0.68 0.56 0.46 0.52 0.59 0.61 0.55 0.46 0.40 0.33 0.28 0.25
0.02 0.03 0.04 0.06 0.07 0.09 0.10 0.13 0.20 0.29 0.37 0.42 0.49 0.62 0.77 0.83 0.88 0.87 0.80 0.77 0.70 0.69 0.60 0.53 0.47 0.46 0.46 0.54 0.65 0.69 0.67 0.64 0.66 0.62 0.52 0.50 0.54 0.53 0.47 0.38 0.29 0.22 0.18 0.16
0.01 0.02 0.03 0.03 0.04 0.06 0.08 0.11 0.16 0.26 0.36 0.43 0.53 0.71 0.88 0.92 1.01 1.14 0.96 0.69 0.63 0.64 0.58 0.49 0.46 0.42 0.40 0.39 0.52 0.59 0.59 0.62 0.63 0.60 0.54 0.47 0.42 0.40 0.36 0.27 0.19 0.15 0.15 0.15
0.02 0.02 0.02 0.02 0.04 0.07 0.10 0.14 0.18 0.25 0.34 0.40 0.49 0.66 0.87 1.02 0.98 0.88 0.81 0.69 0.58 0.52 0.51 0.46 0.37 0.35 0.34 0.31 0.38 0.45 0.49 0.53 0.50 0.47 0.42 0.36 0.34 0.32 0.24 0.19 0.14 0.10 0.12 0.13
0.03 0.03 0.04 0.05 0.10 0.17 0.24 0.30 0.34 0.38 0.46 0.48 0.49 0.55 0.66 0.88 1.01 0.83 0.61 0.55 0.51 0.44 0.43 0.42 0.36 0.32 0.29 0.26 0.27 0.32 0.37 0.40 0.38 0.37 0.33 0.30 0.27 0.23 0.19 0.14 0.10 0.07 0.09 0.10
0.04 0.05 0.06 0.09 0.16 0.27 0.40 0.52 0.61 0.64 0.73 0.78 0.69 0.62 0.62 0.66 0.72 0.68 0.54 0.46 0.44 0.41 0.36 0.35 0.34 0.30 0.26 0.24 0.21 0.25 0.32 0.36 0.36 0.33 0.27 0.26 0.23 0.19 0.17 0.14 0.08 0.06 0.06 0.06
0.07 0.07 0.09 0.13 0.20 0.32 0.48 0.63 0.75 0.83 0.90 0.98 0.92 0.75 0.67 0.62 0.63 0.61 0.54 0.47 0.43 0.42 0.39 0.36 0.34 0.31 0.28 0.26 0.23 0.24 0.28 0.32 0.33 0.31 0.28 0.28 0.26 0.21 0.16 0.11 0.07 0.05 0.05 0.04

GEFSNGP_prec_meanprecacc_072.txt.gz
Total_Precipitation_Accumulation
0.01 0.02 0.03 0.04 0.04 0.03 0.03 0.04 0.11 0.08 0.09 0.08 0.03 0.02 0.02 0.03 0.04 0.04 0.03 0.06 0.05 0.06 0.08 0.11 0.14 0.18 0.22 0.22 0.24 0.28 0.39 0.56 0.72 0.82 0.68 0.47 0.36 0.31 0.28 0.33 0.40 0.51 0.62 0.70
0.00 0.02 0.03 0.04 0.05 0.04 0.02 0.02 0.02 0.03 0.05 0.03 0.02 0.03 0.03 0.03 0.04 0.03 0.03 0.04 0.05 0.06 0.10 0.12 0.13 0.14 0.15 0.17 0.19 0.24 0.32 0.38 0.48 0.54 0.45 0.32 0.20 0.15 0.20 0.28 0.36 0.43 0.50 0.56
0.00 0.02 0.02 0.06 0.06 0.04 0.02 0.03 0.04 0.05 0.06 0.04 0.04 0.05 0.05 0.05 0.04 0.03 0.02 0.02 0.01 0.02 0.03 0.04 0.07 0.08 0.08 0.10 0.16 0.27 0.35 0.35 0.41 0.45 0.40 0.28 0.16 0.15 0.18 0.25 0.31 0.36 0.38 0.41
0.00 0.01 0.06 0.06 0.03 0.03 0.03 0.04 0.05 0.06 0.06 0.06 0.07 0.06 0.06 0.06 0.04 0.03 0.02 0.01 0.01 0.01 0.02 0.02 0.03 0.03 0.04 0.08 0.16 0.25 0.31 0.32 0.41 0.49 0.45 0.36 0.29 0.27 0.28 0.33 0.35 0.36 0.36 0.36
0.01 0.01 0.05 0.04 0.05 0.07 0.08 0.07 0.06 0.07 0.08 0.08 0.07 0.05 0.04 0.03 0.02 0.01 0.01 0.01 0.02 0.02 0.03 0.03 0.04 0.04 0.05 0.08 0.16 0.23 0.29 0.35 0.41 0.49 0.51 0.45 0.42 0.42 0.44 0.44 0.43 0.41 0.39 0.38
0.01 0.05 0.08 0.06 0.07 0.09 0.08 0.16 0.13 0.10 0.07 0.04 0.03 0.05 0.02 0.01 0.01 0.01 0.01 0.01 0.02 0.02 0.03 0.04 0.05 0.08 0.12 0.14 0.18 0.26 0.32 0.38 0.44 0.54 0.61 0.56 0.54 0.55 0.55 0.57 0.51 0.48 0.44 0.45
0.04 0.09 0.10 0.05 0.05 0.05 0.13 0.19 0.07 0.03 0.02 0.02 0.05 0.08 0.03 0.01 0.01 0.01 0.01 0.02 0.03 0.04 0.05 0.06 0.09 0.14 0.19 0.19 0.22 0.26 0.31 0.36 0.46 0.61 0.68 0.67 0.71 0.74 0.70 0.65 0.63 0.63 0.58 0.56
0.06 0.12 0.14 0.04 0.03 0.05 0.07 0.04 0.03 0.03 0.03 0.04 0.03 0.02 0.02 0.01 0.01 0.01 0.02 0.03 0.04 0.05 0.08 0.11 0.15 0.22 0.27 0.29 0.29 0.30 0.34 0.41 0.53 0.61 0.57 0.56 0.73 0.81 0.81 0.79 0.76 0.74 0.71 0.66
0.07 0.09 0.04 0.02 0.02 0.03 0.03 0.05 0.04 0.04 0.02 0.03 0.03 0.03 0.03 0.03 0.02 0.03 0.03 0.05 0.06 0.10 0.13 0.17 0.25 0.34 0.43 0.43 0.42 0.40 0.42 0.47 0.54 0.58 0.64 0.73 0.80 0.81 0.85 0.87 0.83 0.77 0.77 0.76
0.07 0.04 0.02 0.02 0.02 0.02 0.02 0.03 0.02 0.02 0.02 0.03 0.05 0.05 0.05 0.05 0.05 0.04 0.05 0.06 0.08 0.11 0.18 0.26 0.37 0.47 0.55 0.56 0.54 0.52 0.49 0.48 0.51 0.58 0.64 0.78 0.92 0.92 0.89 0.87 0.88 0.86 0.82 0.79
0.06 0.04 0.03 0.03 0.03 0.02 0.01 0.01 0.01 0.02 0.02 0.04 0.06 0.07 0.06 0.06 0.06 0.06 0.06 0.05 0.07 0.14 0.24 0.33 0.47 0.58 0.60 0.61 0.63 0.65 0.59 0.54 0.53 0.58 0.67 0.79 0.89 0.95 0.89 0.87 0.74 0.74 0.76 0.77
0.07 0.07 0.08 0.07 0.04 0.02 0.02 0.02 0.03 0.03 0.03 0.03 0.05 0.06 0.06 0.06 0.07 0.07 0.07 0.07 0.13 0.20 0.27 0.32 0.45 0.60 0.66 0.69 0.74 0.78 0.75 0.70 0.67 0.69 0.74 0.78 0.85 0.85 0.73 0.63 0.52 0.48 0.48 0.51
0.06 0.05 0.06 0.07 0.05 0.04 0.05 0.04 0.03 0.03 0.04 0.04 0.04 0.05 0.06 0.06 0.06 0.07 0.07 0.11 0.16 0.21 0.26 0.31 0.39 0.51 0.61 0.74 0.85 0.89 0.88 0.85 0.84 0.78 0.79 0.84 0.89 0.94 0.91 0.75 0.60 0.48 0.39 0.34
0.04 0.05 0.06 0.05 0.04 0.03 0.03 0.03 0.02 0.03 0.03 0.04 0.04 0.04 0.05 0.06 0.06 0.08 0.11 0.13 0.15 0.19 0.25 0.34 0.43 0.50 0.58 0.74 0.86 0.89 0.89 0.88 0.86 0.84 0.82 0.85 0.89 0.91 0.96 0.97 0.88 0.71 0.50 0.37
0.03 0.05 0.05 0.04 0.02 0.02 0.03 0.03 0.02 0.03 0.04 0.04 0.05 0.05 0.05 0.07 0.09 0.11 0.13 0.16 0.20 0.23 0.28 0.38 0.49 0.56 0.68 0.81 0.88 0.88 0.87 0.85 0.81 0.83 0.84 0.83 0.85 0.86 0.85 0.90 0.90 0.85 0.69 0.50
0.03 0.03 0.03 0.03 0.02 0.03 0.04 0.04 0.05 0.05 0.06 0.06 0.06 0.06 0.07 0.08 0.10 0.12 0.15 0.20 0.30 0.34 0.40 0.51 0.58 0.62 0.75 0.87 0.94 0.91 0.88 0.80 0.74 0.74 0.79 0.81 0.82 0.83 0.80 0.84 0.84 0.83 0.72 0.57
0.05 0.04 0.02 0.02 0.04 0.05 0.06 0.07 0.08 0.07 0.08 0.08 0.08 0.08 0.08 0.11 0.15 0.19 0.22 0.25 0.32 0.39 0.48 0.62 0.65 0.65 0.78 0.91 1.00 0.98 0.91 0.80 0.67 0.66 0.70 0.75 0.79 0.80 0.77 0.76 0.75 0.76 0.66 0.48
0.05 0.05 0.05 0.05 0.07 0.08 0.10 0.11 0.11 0.12 0.13 0.13 0.13 0.14 0.17 0.24 0.33 0.39 0.40 0.41 0.44 0.42 0.45 0.56 0.62 0.68 0.77 0.87 0.94 0.97 0.96 0.88 0.76 0.64 0.62 0.67 0.73 0.76 0.75 0.70 0.67 0.67 0.58 0.42
0.06 0.06 0.08 0.12 0.17 0.18 0.18 0.19 0.19 0.20 0.21 0.20 0.21 0.23 0.28 0.36 0.48 0.56 0.57 0.61 0.66 0.64 0.56 0.55 0.60 0.63 0.71 0.77 0.82 0.91 0.88 0.83 0.73 0.57 0.55 0.59 0.66 0.72 0.70 0.62 0.61 0.60 0.52 0.40
0.05 0.05 0.07 0.16 0.28 0.33 0.33 0.32 0.32 0.31 0.29 0.28 0.30 0.34 0.40 0.46 0.56 0.67 0.70 0.68 0.69 0.74 0.69 0.61 0.58 0.60 0.64 0.68 0.72 0.77 0.75 0.75 0.71 0.53 0.48 0.59 0.65 0.68 0.64 0.54 0.54 0.51 0.42 0.36
0.02 0.03 0.04 0.06 0.13 0.21 0.26 0.28 0.29 0.32 0.33 0.38 0.48 0.58 0.65 0.64 0.67 0.79 0.89 0.79 0.65 0.68 0.66 0.59 0.52 0.53 0.55 0.66 0.70 0.72 0.69 0.67 0.69 0.57 0.48 0.54 0.61 0.63 0.57 0.49 0.44 0.37 0.31 0.29
0.02 0.03 0.05 0.06 0.08 0.09 0.11 0.13 0.20 0.30 0.38 0.43 0.50 0.63 0.77 0.83 0.88 0.88 0.81 0.78 0.72 0.71 0.63 0.55 0.49 0.46 0.47 0.54 0.65 0.69 0.67 0.65 0.66 0.62 0.53 0.52 0.56 0.54 0.50 0.41 0.31 0.26 0.22 0.20
0.01 0.02 0.03 0.03 0.04 0.06 0.08 0.11 0.17 0.27 0.37 0.44 0.53 0.71 0.88 0.93 1.02 1.15 0.97 0.72 0.66 0.67 0.61 0.52 0.47 0.43 0.40 0.39 0.52 0.59 0.59 0.62 0.63 0.61 0.55 0.49 0.44 0.42 0.39 0.30 0.22 0.19 0.19 0.19
0.02 0.02 0.02 0.02 0.05 0.07 0.11 0.14 0.18 0.25 0.34 0.41 0.49 0.66 0.88 1.04 1.00 0.90 0.85 0.73 0.63 0.56 0.54 0.48 0.39 0.36 0.34 0.32 0.38 0.46 0.49 0.53 0.50 0.47 0.43 0.38 0.37 0.35 0.27 0.23 0.17 0.14 0.17 0.17
0.03 0.03 0.04 0.05 0.10 0.17 0.24 0.30 0.34 0.38 0.46 0.49 0.49 0.56 0.67 0.90 1.05 0.88 0.69 0.62 0.58 0.49 0.47 0.45 0.38 0.34 0.30 0.26 0.27 0.32 0.37 0.40 0.38 0.37 0.34 0.31 0.29 0.26 0.21 0.17 0.13 0.11 0.13 0.14
0.04 0.05 0.06 0.09 0.16 0.27 0.40 0.52 0.61 0.65 0.74 0.79 0.70 0.64 0.65 0.72 0.82 0.79 0.65 0.55 0.51 0.47 0.41 0.38 0.35 0.31 0.26 0.24 0.22 0.25 0.32 0.36 0.36 0.33 0.28 0.27 0.24 0.21 0.20 0.17 0.11 0.09 0.08 0.09
0.07 0.07 0.09 0.13 0.20 0.32 0.48 0.63 0.76 0.84 0.92 1.00 0.95 0.81 0.74 0.71 0.73 0.72 0.64 0.55 0.50 0.47 0.42 0.37 0.34 0.31 0.28 0.26 0.23 0.24 0.28 0.33 0.33 0.31 0.29 0.29 0.29 0.23 0.18 0.13 0.09 0.06 0.05 0.05

GEFSNGP_prec_meanprecacc_078.txt.gz
Total_Precipitation_Accumulation
0.01 0.03 0.04 0.04 0.05 0.04 0.04 0.05 0.11 0.08 0.09 0.08 0.03 0.02 0.02 0.03 0.04 0.04 0.03 0.06 0.05 0.06 0.08 0.11 0.14 0.18 0.22 0.22 0.24 0.28 0.39 0.56 0.72 0.82 0.68 0.47 0.36 0.31 0.28 0.33 0.40 0.51 0.62 0.70
0.01 0.02 0.03 0.04 0.06 0.04 0.03 0.02 0.02 0.03 0.05 0.03 0.02 0.03 0.03 0.03 0.04 0.03 0.03 0.04 0.05 0.06 0.10 0.12 0.13 0.14 0.15 0.17 0.19 0.24 0.32 0.38 0.48 0.54 0.45 0.32 0.20 0.15 0.20 0.28 0.36 0.43 0.50 0.56
0.01 0.02 0.02 0.06 0.06 0.04 0.03 0.03 0.04 0.05 0.06 0.04 0.04 0.05 0.05 0.05 0.04 0.03 0.02 0.02 0.01 0.02 0.03 0.04 0.07 0.08 0.08 0.10 0.16 0.27 0.35 0.35 0.41 0.45 0.40 0.28 0.16 0.15 0.18 0.25 0.31 0.36 0.38 0.41
0.01 0.02 0.07 0.07 0.04 0.03 0.04 0.05 0.05 0.06 0.06 0.06 0.07 0.06 0.06 0.06 0.04 0.03 0.02 0.01 0.01 0.01 0.02 0.02 0.03 0.03 0.04 0.08 0.16 0.25 0.31 0.32 0.41 0.49 0.45 0.36 0.29 0.27 0.28 0.33 0.35 0.36 0.36 0.36
0.02 0.02 0.05 0.05 0.05 0.07 0.08 0.07 0.06 0.08 0.08 0.08 0.07 0.05 0.04 0.03 0.02 0.01 0.01 0.01 0.02 0.02 0.03 0.03 0.04 0.04 0.05 0.08 0.16 0.23 0.29 0.35 0.41 0.49 0.51 0.45 0.42 0.42 0.44 0.44 0.43 0.41 0.39 0.38
0.02 0.05 0.09 0.06 0.08 0.09 0.08 0.16 0.13 0.10 0.07 0.04 0.03 0.05 0.02 0.01 0.01 0.01 0.01 0.01 0.02 0.02 0.03 0.04 0.05 0.08 0.12 0.14 0.18 0.26 0.32 0.38 0.44 0.54 0.61 0.56 0.54 0.55 0.55 0.57 0.51 0.48 0.44 0.45
0.05 0.10 0.10 0.05 0.06 0.05 0.13 0.19 0.07 0.03 0.02 0.02 0.05 0.08 0.03 0.01 0.01 0.01 0.01 0.02 0.03 0.04 0.05 0.06 0.09 0.14 0.19 0.19 0.22 0.26 0.31 0.36 0.46 0.61 0.68 0.67 0.71 0.74 0.70 0.65 0.63 0.63 0.58 0.56
0.07 0.13 0.14 0.05 0.03 0.05 0.07 0.04 0.03 0.03 0.03 0.04 0.03 0.02 0.02 0.01 0.01 0.01 0.02 0.03 0.04 0.05 0.08 0.11 0.15 0.22 0.27 0.29 0.29 0.30 0.34 0.41 0.53 0.61 0.57 0.56 0.73 0.81 0.81 0.79 0.76 0.74 0.71 0.67
0.07 0.09 0.04 0.02 0.02 0.03 0.03 0.05 0.04 0.04 0.02 0.03 0.03 0.03 0.03 0.03 0.03 0.03 0.04 0.05 0.06 0.10 0.13 0.17 0.25 0.34 0.43 0.43 0.42 0.40 0.42 0.47 0.54 0.58 0.64 0.73 0.80 0.81 0.85 0.87 0.83 0.78 0.77 0.77
0.07 0.04 0.02 0.02 0.02 0.02 0.02 0.03 0.02 0.02 0.02 0.03 0.05 0.05 0.06 0.05 0.05 0.05 0.05 0.06 0.08 0.11 0.18 0.26 0.37 0.47 0.55 0.56 0.54 0.52 0.49 0.48 0.51 0.58 0.64 0.78 0.92 0.92 0.89 0.87 0.88 0.86 0.83 0.80
0.06 0.04 0.03 0.03 0.03 0.02 0.01 0.01 0.01 0.02 0.02 0.04 0.06 0.07 0.07 0.06 0.06 0.06 0.06 0.05 0.07 0.14 0.24 0.33 0.47 0.58 0.60 0.61 0.63 0.65 0.59 0.54 0.53 0.58 0.67 0.79 0.89 0.95 0.89 0.87 0.74 0.75 0.77 0.78
0.07 0.07 0.08 0.07 0.04 0.02 0.02 0.02 0.03 0.03 0.03 0.03 0.05 0.06 0.06 0.06 0.07 0.08 0.07 0.08 0.13 0.20 0.27 0.33 0.45 0.60 0.66 0.69 0.74 0.78 0.75 0.70 0.67 0.69 0.74 0.78 0.85 0.85 0.73 0.63 0.52 0.49 0.49 0.51
0.07 0.05 0.06 0.07 0.05 0.04 0.05 0.04 0.04 0.03 0.04 0.04 0.04 0.05 0.06 0.06 0.06 0.07 0.07 0.11 0.16 0.21 0.26 0.31 0.39 0.51 0.61 0.74 0.85 0.89 0.88 0.86 0.84 0.78 0.79 0.84 0.89 0.95 0.92 0.76 0.60 0.49 0.40 0.35
0.04 0.05 0.06 0.06 0.04 0.03 0.03 0.03 0.03 0.03 0.04 0.04 0.04 0.04 0.05 0.06 0.07 0.08 0.11 0.13 0.16 0.19 0.25 0.34 0.43 0.50 0.58 0.74 0.86 0.89 0.89 0.88 0.86 0.84 0.82 0.85 0.89 0.91 0.96 0.98 0.89 0.72 0.51 0.38
0.04 0.06 0.07 0.05 0.03 0.03 0.03 0.03 0.03 0.04 0.05 0.05 0.05 0.05 0.06 0.07 0.10 0.12 0.14 0.16 0.20 0.23 0.29 0.38 0.49 0.56 0.68 0.81 0.88 0.88 0.87 0.85 0.82 0.83 0.84 0.83 0.85 0.86 0.85 0.90 0.90 0.85 0.70 0.52
0.05 0.05 0.05 0.04 0.04 0.04 0.05 0.06 0.06 0.07 0.07 0.07 0.07 0.07 0.08 0.09 0.11 0.13 0.15 0.21 0.30 0.34 0.40 0.51 0.58 0.62 0.76 0.88 0.94 0.92 0.88 0.80 0.74 0.74 0.79 0.81 0.82 0.83 0.80 0.85 0.84 0.85 0.75 0.60
0.07 0.06 0.05 0.05 0.06 0.07 0.08 0.09 0.09 0.09 0.10 0.10 0.10 0.09 0.10 0.11 0.16 0.20 0.22 0.25 0.32 0.39 0.48 0.62 0.65 0.65 0.78 0.92 1.00 0.98 0.91 0.81 0.67 0.66 0.70 0.75 0.79 0.80 0.78 0.77 0.77 0.79 0.69 0.51
0.06 0.06 0.06 0.07 0.08 0.10 0.11 0.12 0.13 0.13 0.14 0.15 0.14 0.15 0.18 0.25 0.34 0.40 0.41 0.41 0.45 0.42 0.45 0.57 0.62 0.68 0.77 0.87 0.94 0.98 0.96 0.88 0.76 0.64 0.62 0.67 0.73 0.76 0.75 0.72 0.70 0.70 0.62 0.44
0.07 0.08 0.09 0.13 0.18 0.19 0.19 0.19 0.20 0.21 0.22 0.21 0.22 0.24 0.29 0.37 0.48 0.56 0.58 0.61 0.66 0.64 0.57 0.55 0.60 0.64 0.72 0.77 0.82 0.91 0.88 0.83 0.73 0.57 0.55 0.59 0.66 0.72 0.70 0.64 0.64 0.63 0.54 0.42
0.06 0.06 0.07 0.16 0.29 0.34 0.34 0.33 0.33 0.32 0.29 0.28 0.31 0.35 0.41 0.46 0.56 0.67 0.70 0.68 0.69 0.74 0.70 0.61 0.58 0.60 0.65 0.69 0.72 0.77 0.75 0.75 0.71 0.53 0.48 0.59 0.65 0.69 0.65 0.56 0.57 0.54 0.44 0.38
0.03 0.03 0.04 0.07 0.14 0.22 0.27 0.28 0.29 0.32 0.34 0.38 0.48 0.58 0.65 0.64 0.67 0.79 0.89 0.79 0.65 0.68 0.67 0.60 0.53 0.54 0.56 0.66 0.70 0.72 0.69 0.67 0.69 0.57 0.48 0.54 0.62 0.64 0.59 0.51 0.46 0.40 0.34 0.31
0.02 0.03 0.05 0.07 0.08 0.09 0.11 0.13 0.20 0.30 0.38 0.43 0.50 0.63 0.77 0.83 0.88 0.88 0.81 0.79 0.72 0.71 0.64 0.56 0.50 0.47 0.47 0.54 0.65 0.69 0.67 0.65 0.67 0.63 0.54 0.53 0.57 0.56 0.52 0.43 0.34 0.28 0.24 0.23
0.01 0.02 0.03 0.03 0.04 0.06 0.08 0.11 0.17 0.27 0.37 0.44 0.53 0.72 0.88 0.93 1.02 1.16 0.98 0.72 0.67 0.68 0.63 0.53 0.48 0.44 0.41 0.40 0.53 0.60 0.59 0.62 0.64 0.62 0.56 0.49 0.45 0.44 0.42 0.33 0.25 0.21 0.21 0.21
0.02 0.02 0.02 0.02 0.05 0.07 0.11 0.14 0.18 0.25 0.34 0.41 0.49 0.66 0.88 1.04 1.00 0.91 0.86 0.74 0.64 0.57 0.56 0.50 0.40 0.37 0.36 0.33 0.39 0.46 0.50 0.54 0.51 0.48 0.44 0.38 0.38 0.37 0.30 0.25 0.19 0.16 0.19 0.19
0.03 0.03 0.04 0.05 0.10 0.17 0.24 0.30 0.34 0.38 0.46 0.49 0.50 0.56 0.67 0.90 1.05 0.89 0.70 0.64 0.59 0.51 0.49 0.48 0.40 0.35 0.31 0.27 0.27 0.32 0.37 0.40 0.38 0.37 0.34 0.31 0.30 0.28 0.23 0.19 0.15 0.13 0.15 0.16
0.04 0.05 0.06 0.09 0.16 0.27 0.40 0.52 0.61 0.65 0.74 0.79 0.70 0.64 0.65 0.72 0.82 0.81 0.67 0.57 0.52 0.49 0.43 0.41 0.37 0.32 0.28 0.25 0.22 0.25 0.32 0.36 0.36 0.33 0.28 0.28 0.26 0.22 0.21 0.19 0.12 0.10 0.09 0.10
0.07 0.07 0.09 0.13 0.20 0.32 0.48 0.63 0.76 0.84 0.92 1.01 0.96 0.81 0.74 0.72 0.74 0.73 0.66 0.57 0.53 0.50 0.46 0.41 0.37 0.33 0.30 0.27 0.24 0.24 0.29 0.33 0.34 0.32 0.30 0.31 0.30 0.25 0.19 0.14 0.10 0.07 0.06 0.06